Regional Weather Roundup
Issued by NWS

Home | Current Version | Previous Version | Graphics & Text | Print | Product List | Glossary On
Versions: 1 2 3 4 5 6 7 8 9 10 11 12 13 14 15 16 17 18 19 20 21 22 23 24 25 26 27 28 29 30 31 32 33 34 35 36 37 38 39 40 41 42 43 44 45 46 47 48 49 50
815
ASUS44 KJAN 190810
RWRMS

MISSISSIPPI HOURLY WEATHER ROUNDUP
NATIONAL WEATHER SERVICE JACKSON MS
300 AM CDT TUE AUG 19 2014

NOTE: "FAIR: INDICATES FEW OR NO CLOUDS BELOW 12,000 FEET WITH NO
SIGNIFICANT WEATHER AND/OR OBSTRUCTIONS TO VISIBILITY.

MSZ001>002-007>008-010>013-018>021-025>028-034>036-190900-
NORTHWEST MISSISSIPPI

CITY           SKY/WX    TMP DP  RH WIND       PRES   REMARKS
CLARKSDALE     FAIR      70  70 100 CALM      29.87S
CLEVELAND      FAIR      70  70 100 CALM      29.87F
GREENWOOD      CLOUDY    72  67  84 SW6       29.88R
GREENVILLE     PTCLDY    71  68  90 SE3       29.86F
GRENADA        FAIR      72  68  88 CALM      29.88S
OLIVE BRANCH   MOCLDY    73 N/A N/A S5        29.86S
OXFORD         MOCLDY    72  72 100 SW5       29.88S
TUNICA         PTSUNNY   70  68  94 S6        29.86S
$$

MSZ003>006-009-014>017-022>024-029>033-037>039-190900-
NORTHEAST MISSISSIPPI

CITY           SKY/WX    TMP DP  RH WIND       PRES   REMARKS
BELMONT        FAIR      69  69  99 CALM      29.86F
COLUMBUS AFB   MOCLDY    75  75 100 E2        29.86F
CORINTH        FOG       72  70  94 CALM      29.86R VSB 1/4
GOLDN TRIANGLE PTCLDY    75  72  88 S7        29.87F
STARKVILLE     FAIR      72  70  94 CALM      29.87S
TUPELO         MOCLDY    73  71  93 CALM      29.85F
$$

MSZ040-058-190900-
CENTRAL MISSISSIPPI

CITY           SKY/WX    TMP DP  RH WIND       PRES   REMARKS
JACKSON INTL   PTCLDY    77  73  87 S3        29.90R
JACKSON HAWKNS MOCLDY    77  73  87 CALM      29.91R
MERIDIAN KEY   CLEAR     73  72  96 S6        29.90S
MERIDIAN NAS   CLEAR     76  73  91 W7        29.89R
RAYMOND        FAIR      75  70  83 CALM      29.90S
VICKSBURG      PTCLDY    76  74  93 VRB3      29.88F
$$

MSZ059>079-190900-
SOUTH MISSISSIPPI

CITY           SKY/WX    TMP DP  RH WIND       PRES   REMARKS
BROOKHAVEN     FAIR      75  73  94 S6        29.94F
COLUMBIA       FOG       73  72  94 MISG      29.92F VSB<1/4
HATTIESBURG    PTCLDY    80  75  84 VRB6      29.93F
MCCOMB         CLEAR     75  73  93 SW5       29.94F
NATCHEZ        CLEAR     77  73  88 W3        29.93R
PINE BELT      PTCLDY    75  72  88 SW7       29.94S
$$

MSZ080>082-190900-
COASTAL MISSISSIPPI

CITY           SKY/WX    TMP DP  RH WIND       PRES   REMARKS
BILOXI         CLEAR     82  77  84 VRB5      29.94S HX  90
PASCAGOULA     PTCLDY    82  77  84 SW8       29.94F HX  90
GULFPORT       CLEAR     80  76  87 CALM      29.94S
$$



USA.gov is the U.S. government's official web portal to all federal, state and local government web resources and services.